NJE8TG LSZR-LFMD

Flight info

Callsign NJE8TG
Flight time N/A
Altitude 41000
Route TRA N850 SOSON DCT ODINA DCT ENOBA/N0456F350 Z185 ASBOP/N0394F190 Z185 BORDI
Aircraft CL60/M-SBDE1E2E3FGHIJ1J4J5J7M3RWXYZ/LB1V1D1

Departure

Time 2026-04-22 09:15
Airport Sankt Gallen Altenrhein Airport (LSZR)

Arrival

Time N/A
Airport Cannes Mandelieu Airport (LFMD)
Time Latitude Longitude Altitude Speed Heading
2026-04-22 08:59 47.48719 9.55256 1310 ft 0 kts 355°
2026-04-22 09:12 47.48720 9.55256 1310 ft 0 kts 355°
2026-04-22 09:12 47.48739 9.55270 1310 ft 5 kts 66°
2026-04-22 09:13 47.48734 9.55342 1310 ft 3 kts 128°
2026-04-22 09:13 47.48707 9.55348 1310 ft 6 kts 187°
2026-04-22 09:13 47.48651 9.55335 1310 ft 9 kts 188°
2026-04-22 09:13 47.48592 9.55307 1310 ft 8 kts 243°
2026-04-22 09:14 47.48596 9.55198 1310 ft 12 kts 278°
2026-04-22 09:14 47.48611 9.55049 1310 ft 16 kts 274°
2026-04-22 09:14 47.48601 9.54974 1310 ft 4 kts 258°
2026-04-22 09:14 47.48609 9.54955 1310 ft 2 kts 14°
2026-04-22 09:15 47.48616 9.54987 1310 ft 5 kts 91°
2026-04-22 09:15 47.48573 9.55417 1310 ft 95 kts 98°
2026-04-22 09:15 47.48419 9.56765 1564 ft 157 kts 98°
2026-04-22 09:15 47.48250 9.58424 2357 ft 165 kts 88°
2026-04-22 09:16 47.48648 9.59909 3019 ft 162 kts 42°
2026-04-22 09:16 47.49725 9.60259 3529 ft 171 kts 347°
2026-04-22 09:16 47.50572 9.59035 3964 ft 182 kts 291°
2026-04-22 09:16 47.50586 9.57166 4456 ft 187 kts 261°
2026-04-22 09:17 47.50308 9.55242 4670 ft 188 kts 260°
2026-04-22 09:17 47.50087 9.53372 4857 ft 185 kts 263°
2026-04-22 09:17 47.49852 9.51502 5032 ft 185 kts 259°
2026-04-22 09:17 47.49560 9.49686 5453 ft 182 kts 257°
2026-04-22 09:18 47.49433 9.47829 5911 ft 182 kts 280°
2026-04-22 09:18 47.49633 9.46021 6550 ft 177 kts 282°
2026-04-22 09:18 47.49834 9.44246 7383 ft 181 kts 282°
2026-04-22 09:18 47.50040 9.42412 8303 ft 186 kts 281°
2026-04-22 09:19 47.50248 9.40537 9279 ft 193 kts 281°
2026-04-22 09:19 47.50474 9.38513 10114 ft 213 kts 281°
2026-04-22 09:19 47.50717 9.36299 10895 ft 221 kts 281°
2026-04-22 09:19 47.50957 9.34091 11666 ft 220 kts 281°
2026-04-22 09:20 47.51280 9.31857 12485 ft 228 kts 298°
2026-04-22 09:20 47.52276 9.30220 13665 ft 218 kts 334°
2026-04-22 09:20 47.53527 9.29075 14795 ft 220 kts 327°
2026-04-22 09:20 47.54722 9.27645 15860 ft 225 kts 324°
2026-04-22 09:21 47.55906 9.26144 16860 ft 230 kts 324°
2026-04-22 09:21 47.57237 9.24459 17020 ft 273 kts 323°
2026-04-22 09:21 47.58818 9.22513 17038 ft 316 kts 323°
2026-04-22 09:21 47.60612 9.20330 17359 ft 345 kts 323°
2026-04-22 09:22 47.62506 9.18037 18124 ft 358 kts 324°
2026-04-22 09:22 47.64435 9.15702 19095 ft 363 kts 323°
2026-04-22 09:22 47.66376 9.13350 20096 ft 366 kts 323°
2026-04-22 09:22 47.68342 9.10961 21074 ft 369 kts 323°
2026-04-22 09:23 47.70345 9.08520 21992 ft 373 kts 323°
2026-04-22 09:23 47.72369 9.06046 22831 ft 378 kts 324°
2026-04-22 09:23 47.74257 9.03362 23648 ft 386 kts 311°
2026-04-22 09:23 47.75497 8.99790 24433 ft 399 kts 289°
2026-04-22 09:24 47.75794 8.95634 25203 ft 409 kts 269°
2026-04-22 09:24 47.75416 8.91455 25946 ft 413 kts 264°
2026-04-22 09:24 47.74977 8.87193 26703 ft 412 kts 269°
2026-04-22 09:24 47.74890 8.83002 27412 ft 411 kts 274°
2026-04-22 09:25 47.74686 8.78772 28085 ft 415 kts 264°
2026-04-22 09:25 47.73833 8.74615 28729 ft 423 kts 250°
2026-04-22 09:25 47.72315 8.70853 29324 ft 432 kts 236°
2026-04-22 09:25 47.70126 8.67700 30013 ft 437 kts 221°
2026-04-22 09:26 47.67439 8.65504 30707 ft 443 kts 205°
2026-04-22 09:26 47.64463 8.64225 31293 ft 446 kts 199°
2026-04-22 09:26 47.61403 8.63091 31843 ft 445 kts 199°
2026-04-22 09:26 47.58427 8.61979 32331 ft 445 kts 199°
2026-04-22 09:27 47.55414 8.60855 32840 ft 444 kts 200°
2026-04-22 09:27 47.52392 8.59731 33341 ft 443 kts 200°
2026-04-22 09:27 47.49390 8.58614 33834 ft 441 kts 200°
2026-04-22 09:27 47.46407 8.57506 34253 ft 441 kts 200°
2026-04-22 09:28 47.43429 8.56401 34645 ft 441 kts 201°
2026-04-22 09:28 47.40476 8.55306 34964 ft 442 kts 201°
2026-04-22 09:28 47.37455 8.54186 35289 ft 443 kts 200°
2026-04-22 09:28 47.34483 8.53087 35569 ft 443 kts 200°
2026-04-22 09:29 47.31458 8.51969 35855 ft 443 kts 200°
2026-04-22 09:29 47.28463 8.50964 36151 ft 447 kts 196°
2026-04-22 09:29 47.25322 8.50448 36536 ft 452 kts 187°
2026-04-22 09:29 47.22158 8.50554 36876 ft 456 kts 179°
2026-04-22 09:30 47.18979 8.51006 37189 ft 457 kts 178°
2026-04-22 09:30 47.15834 8.51462 37561 ft 456 kts 178°
2026-04-22 09:30 47.12699 8.51914 37916 ft 455 kts 178°
2026-04-22 09:30 47.09540 8.52370 38143 ft 457 kts 177°
2026-04-22 09:31 47.06354 8.52829 38469 ft 455 kts 178°
2026-04-22 09:31 47.03199 8.53284 38764 ft 454 kts 177°
2026-04-22 09:31 47.00055 8.53737 39060 ft 453 kts 177°
2026-04-22 09:31 46.96943 8.54184 39289 ft 454 kts 177°
2026-04-22 09:32 46.93784 8.54638 39537 ft 453 kts 177°
2026-04-22 09:32 46.90643 8.55089 39740 ft 454 kts 176°
2026-04-22 09:32 46.87492 8.55542 39978 ft 453 kts 177°
2026-04-22 09:32 46.84362 8.55990 40202 ft 451 kts 176°
2026-04-22 09:33 46.81239 8.56437 40446 ft 449 kts 177°
2026-04-22 09:33 46.78145 8.56880 40676 ft 448 kts 177°
2026-04-22 09:33 46.75069 8.57320 40854 ft 447 kts 177°
2026-04-22 09:33 46.71950 8.57766 41017 ft 447 kts 177°
2026-04-22 09:34 46.68873 8.58204 41109 ft 449 kts 177°
2026-04-22 09:34 46.62602 8.59095 41067 ft 457 kts 177°
2026-04-22 09:35 46.52970 8.60461 41098 ft 467 kts 177°
2026-04-22 09:35 46.46478 8.61379 41096 ft 473 kts 177°
2026-04-22 09:36 46.39875 8.62311 41111 ft 479 kts 177°
2026-04-22 09:36 46.33180 8.63254 41113 ft 484 kts 177°
2026-04-22 09:37 46.26420 8.64205 41122 ft 488 kts 177°
2026-04-22 09:37 46.19659 8.65152 41126 ft 491 kts 177°
2026-04-22 09:38 46.12848 8.66084 41132 ft 492 kts 179°
2026-04-22 09:38 46.06065 8.65602 41148 ft 486 kts 192°
2026-04-22 09:39 45.99357 8.64216 41143 ft 486 kts 192°
2026-04-22 09:39 45.92609 8.62834 41123 ft 486 kts 192°
2026-04-22 09:40 45.85916 8.61468 41157 ft 485 kts 192°
2026-04-22 09:40 45.79223 8.60105 41138 ft 486 kts 192°
2026-04-22 09:41 45.72488 8.58739 41133 ft 485 kts 192°
2026-04-22 09:41 45.65747 8.57374 41143 ft 485 kts 192°
2026-04-22 09:42 45.59071 8.56028 41146 ft 486 kts 192°
2026-04-22 09:42 45.52372 8.54680 41151 ft 487 kts 192°
2026-04-22 09:43 45.45629 8.53328 41175 ft 485 kts 192°
2026-04-22 09:43 45.38883 8.51976 41133 ft 486 kts 192°
2026-04-22 09:44 45.32212 8.50646 41165 ft 484 kts 192°
2026-04-22 09:44 45.25472 8.49306 41141 ft 485 kts 192°
2026-04-22 09:45 45.18763 8.47972 41124 ft 485 kts 192°
2026-04-22 09:45 45.12056 8.46644 41178 ft 484 kts 193°
2026-04-22 09:46 45.05376 8.45323 40846 ft 484 kts 193°
2026-04-22 09:46 45.02023 8.44662 40297 ft 484 kts 193°
2026-04-22 09:46 44.98724 8.44013 39632 ft 486 kts 193°
2026-04-22 09:47 44.95356 8.43347 38950 ft 484 kts 194°
2026-04-22 09:47 44.92014 8.42693 38420 ft 482 kts 194°
2026-04-22 09:47 44.88672 8.42035 37520 ft 483 kts 195°
2026-04-22 09:47 44.85419 8.41404 37291 ft 472 kts 195°
2026-04-22 09:48 44.82138 8.40761 36302 ft 479 kts 196°
2026-04-22 09:48 44.79075 8.40154 35926 ft 473 kts 197°
2026-04-22 09:48 44.75803 8.39515 35146 ft 477 kts 197°
2026-04-22 09:48 44.72529 8.38876 34540 ft 473 kts 198°
2026-04-22 09:49 44.69270 8.38252 33951 ft 468 kts 197°
2026-04-22 09:49 44.66063 8.37630 33295 ft 464 kts 197°
2026-04-22 09:49 44.62833 8.37003 32717 ft 459 kts 198°
2026-04-22 09:49 44.59666 8.36383 32060 ft 455 kts 197°
2026-04-22 09:50 44.56555 8.35780 31511 ft 451 kts 198°
2026-04-22 09:50 44.53453 8.35180 30855 ft 448 kts 197°
2026-04-22 09:50 44.50370 8.34583 30320 ft 450 kts 197°
2026-04-22 09:50 44.47262 8.33970 29669 ft 452 kts 196°
2026-04-22 09:51 44.44104 8.33353 29076 ft 455 kts 196°
2026-04-22 09:51 44.40952 8.32747 28446 ft 454 kts 196°
2026-04-22 09:51 44.37815 8.32146 27852 ft 455 kts 195°
2026-04-22 09:51 44.34701 8.31521 27252 ft 452 kts 198°
2026-04-22 09:52 44.31720 8.30271 26629 ft 436 kts 212°
2026-04-22 09:52 44.29229 8.28102 26017 ft 417 kts 229°
2026-04-22 09:52 44.27290 8.25175 25400 ft 405 kts 241°
2026-04-22 09:52 44.25696 8.21934 24849 ft 401 kts 243°
2026-04-22 09:53 44.24110 8.18723 24343 ft 402 kts 242°
2026-04-22 09:53 44.22518 8.15571 23822 ft 401 kts 242°
2026-04-22 09:53 44.20908 8.12368 23276 ft 398 kts 242°
2026-04-22 09:53 44.19341 8.09227 22769 ft 395 kts 243°
2026-04-22 09:54 44.17793 8.06122 22235 ft 392 kts 242°
2026-04-22 09:54 44.16253 8.03046 21751 ft 389 kts 242°
2026-04-22 09:54 44.14711 7.99973 21222 ft 388 kts 242°
2026-04-22 09:54 44.13166 7.96894 20692 ft 383 kts 242°
2026-04-22 09:55 44.11651 7.93879 20188 ft 381 kts 242°
2026-04-22 09:55 44.10121 7.90829 19665 ft 379 kts 242°
2026-04-22 09:55 44.08622 7.87843 19184 ft 375 kts 242°
2026-04-22 09:55 44.07144 7.84905 18687 ft 373 kts 242°
2026-04-22 09:56 44.05673 7.81984 18193 ft 369 kts 242°
2026-04-22 09:56 44.04193 7.79048 17673 ft 366 kts 242°
2026-04-22 09:56 44.02751 7.76184 17219 ft 363 kts 242°
2026-04-22 09:56 44.01317 7.73332 16737 ft 360 kts 241°
2026-04-22 09:57 43.99888 7.70498 16487 ft 355 kts 242°
2026-04-22 09:57 43.98476 7.67696 16480 ft 357 kts 242°
2026-04-22 09:57 43.97042 7.64844 16438 ft 361 kts 242°
2026-04-22 09:57 43.95597 7.61973 16182 ft 360 kts 241°
2026-04-22 09:58 43.94156 7.59132 16003 ft 358 kts 241°
2026-04-22 09:58 43.92736 7.56337 15814 ft 358 kts 241°
2026-04-22 09:58 43.91298 7.53499 15639 ft 356 kts 242°
2026-04-22 09:58 43.89957 7.50849 15474 ft 356 kts 241°
2026-04-22 09:59 43.88302 7.48031 15255 ft 362 kts 231°
2026-04-22 09:59 43.86302 7.45837 14992 ft 371 kts 218°
2026-04-22 09:59 43.83934 7.44339 14759 ft 379 kts 204°
2026-04-22 09:59 43.81323 7.43693 14513 ft 388 kts 188°
2026-04-22 10:00 43.78597 7.44025 14112 ft 397 kts 171°
2026-04-22 10:00 43.76063 7.45543 13872 ft 397 kts 149°
2026-04-22 10:00 43.73875 7.47912 13670 ft 405 kts 142°
2026-04-22 10:00 43.71708 7.50364 13454 ft 400 kts 143°
2026-04-22 10:01 43.69554 7.52790 13290 ft 401 kts 140°
2026-04-22 10:01 43.67779 7.55723 13081 ft 400 kts 121°
2026-04-22 10:01 43.66703 7.59250 12828 ft 397 kts 107°
2026-04-22 10:01 43.65818 7.62818 12641 ft 394 kts 108°
2026-04-22 10:02 43.64883 7.66405 12433 ft 394 kts 109°
2026-04-22 10:02 43.63959 7.69920 12235 ft 390 kts 109°
2026-04-22 10:02 43.63054 7.73409 12052 ft 389 kts 108°
2026-04-22 10:02 43.62151 7.76922 11840 ft 387 kts 108°
2026-04-22 10:03 43.61245 7.80420 11656 ft 383 kts 109°
2026-04-22 10:03 43.60349 7.83859 11443 ft 380 kts 109°
2026-04-22 10:03 43.59470 7.87235 11277 ft 372 kts 109°
2026-04-22 10:03 43.58612 7.90539 11080 ft 363 kts 109°
2026-04-22 10:04 43.57770 7.93773 10896 ft 354 kts 109°
2026-04-22 10:04 43.56949 7.96920 10714 ft 343 kts 109°
2026-04-22 10:04 43.56103 7.99939 10520 ft 335 kts 116°
2026-04-22 10:04 43.54712 8.02425 10270 ft 326 kts 139°
2026-04-22 10:05 43.52850 8.04125 9899 ft 317 kts 157°
2026-04-22 10:05 43.50780 8.04958 9653 ft 303 kts 175°
2026-04-22 10:05 43.48699 8.04989 9242 ft 298 kts 189°
2026-04-22 10:05 43.46738 8.04306 8983 ft 284 kts 205°
2026-04-22 10:06 43.45022 8.03071 8971 ft 284 kts 216°
2026-04-22 10:06 43.43434 8.01411 8732 ft 281 kts 224°
2026-04-22 10:06 43.42000 7.99637 8656 ft 281 kts 224°
2026-04-22 10:06 43.40526 7.97861 8475 ft 282 kts 223°
2026-04-22 10:07 43.39050 7.96115 8349 ft 279 kts 223°
2026-04-22 10:07 43.37582 7.94366 8203 ft 274 kts 224°
2026-04-22 10:07 43.36178 7.92678 8071 ft 266 kts 224°
2026-04-22 10:07 43.34808 7.91032 7942 ft 259 kts 224°
2026-04-22 10:08 43.33467 7.89428 7795 ft 252 kts 224°
2026-04-22 10:08 43.32190 7.87828 7673 ft 245 kts 232°
2026-04-22 10:08 43.31409 7.85786 7517 ft 238 kts 261°
2026-04-22 10:08 43.31235 7.83565 7411 ft 236 kts 268°
2026-04-22 10:09 43.31081 7.81298 7280 ft 239 kts 266°
2026-04-22 10:09 43.30889 7.79027 7147 ft 238 kts 265°
2026-04-22 10:09 43.30706 7.76788 7046 ft 239 kts 266°
2026-04-22 10:09 43.30533 7.74516 6912 ft 239 kts 266°
2026-04-22 10:10 43.30360 7.72233 6791 ft 239 kts 266°
2026-04-22 10:10 43.30185 7.69995 6662 ft 239 kts 265°
2026-04-22 10:10 43.30002 7.67719 6546 ft 239 kts 265°
2026-04-22 10:10 43.29821 7.65444 6419 ft 240 kts 265°
2026-04-22 10:11 43.29642 7.63153 6301 ft 240 kts 266°
2026-04-22 10:11 43.29465 7.60877 6173 ft 241 kts 266°
2026-04-22 10:11 43.29288 7.58606 6043 ft 240 kts 266°
2026-04-22 10:11 43.29110 7.56345 5926 ft 240 kts 266°
2026-04-22 10:12 43.28927 7.54047 5792 ft 240 kts 265°
2026-04-22 10:12 43.28747 7.51787 5690 ft 240 kts 266°
2026-04-22 10:12 43.28564 7.49484 5547 ft 241 kts 265°
2026-04-22 10:12 43.28386 7.47226 5442 ft 242 kts 266°
2026-04-22 10:13 43.28205 7.44938 5290 ft 242 kts 265°
2026-04-22 10:13 43.28021 7.42624 5189 ft 242 kts 266°
2026-04-22 10:13 43.27837 7.40334 5058 ft 243 kts 265°
2026-04-22 10:13 43.27665 7.38027 4922 ft 242 kts 270°
2026-04-22 10:14 43.27810 7.35740 4807 ft 241 kts 282°
2026-04-22 10:14 43.28075 7.33463 4673 ft 241 kts 280°
2026-04-22 10:14 43.28301 7.31184 4558 ft 242 kts 279°
2026-04-22 10:14 43.28518 7.28891 4424 ft 242 kts 279°
2026-04-22 10:15 43.28746 7.26610 4307 ft 242 kts 280°
2026-04-22 10:15 43.28980 7.24326 4182 ft 244 kts 280°
2026-04-22 10:15 43.29213 7.22016 4044 ft 242 kts 279°
2026-04-22 10:15 43.29438 7.19714 3938 ft 244 kts 279°
2026-04-22 10:16 43.29657 7.17451 3814 ft 234 kts 279°
2026-04-22 10:16 43.29859 7.15342 3748 ft 211 kts 279°
2026-04-22 10:16 43.30043 7.13442 3617 ft 195 kts 279°
2026-04-22 10:16 43.30223 7.11624 3511 ft 191 kts 280°
2026-04-22 10:17 43.30406 7.09802 3371 ft 192 kts 280°
2026-04-22 10:17 43.30586 7.07994 3284 ft 191 kts 280°
2026-04-22 10:17 43.30761 7.06193 3200 ft 192 kts 279°
2026-04-22 10:17 43.30934 7.04385 3088 ft 192 kts 279°
2026-04-22 10:18 43.31251 7.02622 2983 ft 190 kts 301°
2026-04-22 10:18 43.32176 7.01437 2825 ft 178 kts 345°
2026-04-22 10:18 43.33357 7.01088 2699 ft 171 kts 356°
2026-04-22 10:18 43.34543 7.00789 2463 ft 176 kts 354°
2026-04-22 10:19 43.35731 7.00432 2230 ft 171 kts 354°
2026-04-22 10:19 43.36891 7.00086 2098 ft 173 kts 354°
2026-04-22 10:19 43.38070 6.99758 1938 ft 168 kts 355°
2026-04-22 10:19 43.39219 6.99435 2016 ft 171 kts 355°
2026-04-22 10:20 43.40365 6.99103 2011 ft 165 kts 354°
2026-04-22 10:20 43.41484 6.98776 1988 ft 164 kts 354°
2026-04-22 10:20 43.42601 6.98464 1952 ft 162 kts 355°
2026-04-22 10:20 43.43712 6.98164 1943 ft 162 kts 355°
2026-04-22 10:21 43.44825 6.97856 1945 ft 163 kts 354°
2026-04-22 10:21 43.45954 6.97530 1824 ft 165 kts 354°
2026-04-22 10:21 43.47051 6.97177 1823 ft 162 kts 353°
2026-04-22 10:21 43.48157 6.96849 1882 ft 160 kts 355°
2026-04-22 10:22 43.49216 6.96564 1973 ft 145 kts 355°
2026-04-22 10:22 43.50205 6.96374 2057 ft 141 kts
2026-04-22 10:22 43.51155 6.96605 2066 ft 135 kts 24°
2026-04-22 10:22 43.52017 6.97084 2045 ft 133 kts 27°
2026-04-22 10:23 43.52861 6.97597 2066 ft 132 kts 31°
2026-04-22 10:23 43.53671 6.98210 2067 ft 132 kts 32°
2026-04-22 10:23 43.54506 6.98779 2027 ft 135 kts 22°
2026-04-22 10:23 43.55450 6.98783 1954 ft 139 kts 354°
2026-04-22 10:24 43.56408 6.98613 1999 ft 137 kts
2026-04-22 10:24 43.57352 6.98586 2026 ft 131 kts
2026-04-22 10:24 43.58240 6.98446 1900 ft 126 kts 358°
2026-04-22 10:24 43.59089 6.98248 1868 ft 123 kts 356°
2026-04-22 10:25 43.59937 6.98077 1861 ft 123 kts 359°
2026-04-22 10:25 43.60733 6.97515 1748 ft 134 kts 319°
2026-04-22 10:25 43.61148 6.96356 1561 ft 139 kts 281°
2026-04-22 10:25 43.60999 6.95031 1289 ft 140 kts 245°
2026-04-22 10:26 43.60505 6.93931 1048 ft 131 kts 214°
2026-04-22 10:26 43.59687 6.93657 858 ft 122 kts 161°
2026-04-22 10:26 43.58881 6.93964 758 ft 120 kts 149°
2026-04-22 10:26 43.58115 6.94399 650 ft 119 kts 157°
2026-04-22 10:27 43.57280 6.94636 516 ft 124 kts 165°
2026-04-22 10:27 43.56413 6.94802 354 ft 124 kts 167°
2026-04-22 10:27 43.55553 6.94953 118 ft 126 kts 168°
2026-04-22 10:27 43.54734 6.95095 31 ft 104 kts 168°
2026-04-22 10:28 43.53892 6.95271 452 ft 143 kts 165°
2026-04-22 10:28 43.53008 6.95524 1185 ft 127 kts 160°
2026-04-22 10:28 43.52123 6.96097 1248 ft 167 kts 134°
2026-04-22 10:28 43.51515 6.97742 985 ft 222 kts 92°
2026-04-22 10:29 43.51899 6.99813 1495 ft 228 kts 60°
2026-04-22 10:29 43.52949 7.01408 1374 ft 219 kts 45°
2026-04-22 10:29 43.53726 7.03082 1417 ft 198 kts 78°
2026-04-22 10:29 43.53538 7.04923 1683 ft 203 kts 116°
2026-04-22 10:30 43.52716 7.06525 1981 ft 206 kts 124°
2026-04-22 10:30 43.51859 7.08092 2370 ft 207 kts 123°
2026-04-22 10:30 43.50996 7.09718 2783 ft 211 kts 123°
2026-04-22 10:30 43.50127 7.11362 2961 ft 214 kts 123°
2026-04-22 10:31 43.49240 7.13028 2948 ft 214 kts 123°
2026-04-22 10:31 43.48350 7.14687 2954 ft 236 kts 123°
2026-04-22 10:31 43.47291 7.16673 2885 ft 254 kts 123°
2026-04-22 10:31 43.46280 7.18547 2942 ft 232 kts 123°